Year,Month,Day,Hour,Minute,Value (Times are PST for temperature in C)
2008,06,30,00,00,17.80
2008,06,30,00,01,17.80
2008,06,30,00,02,17.80
2008,06,30,00,03,17.90
2008,06,30,00,04,17.90
2008,06,30,00,05,17.90
2008,06,30,00,06,17.90
2008,06,30,00,07,18.00
2008,06,30,00,08,18.10
2008,06,30,00,09,18.10
2008,06,30,00,10,18.20
2008,06,30,00,11,18.20
2008,06,30,00,12,18.30
2008,06,30,00,13,18.40
2008,06,30,00,14,18.50
2008,06,30,00,15,18.60
2008,06,30,00,16,18.70
2008,06,30,00,17,18.70
2008,06,30,00,18,18.80
2008,06,30,00,19,18.80
2008,06,30,00,20,18.80
2008,06,30,00,21,18.90
2008,06,30,00,22,18.90
2008,06,30,00,23,18.90
2008,06,30,00,24,18.90
2008,06,30,00,25,18.90
2008,06,30,00,26,18.90
2008,06,30,00,27,18.90
2008,06,30,00,28,18.90
2008,06,30,00,29,18.90
2008,06,30,00,30,18.90
2008,06,30,00,31,18.90
2008,06,30,00,32,18.90
2008,06,30,00,33,18.90
2008,06,30,00,34,18.90
2008,06,30,00,35,18.90
2008,06,30,00,36,18.90
2008,06,30,00,37,18.80
2008,06,30,00,38,18.80
2008,06,30,00,39,18.80
2008,06,30,00,40,18.90
2008,06,30,00,41,18.90
2008,06,30,00,42,18.90
2008,06,30,00,43,18.90
2008,06,30,00,44,18.90
2008,06,30,00,45,18.80
2008,06,30,00,46,18.60
2008,06,30,00,47,18.50
2008,06,30,00,48,18.40
2008,06,30,00,49,18.30
2008,06,30,00,50,18.30
2008,06,30,00,51,18.20
2008,06,30,00,52,18.10
2008,06,30,00,53,17.90
2008,06,30,00,54,17.80
2008,06,30,00,55,17.70
2008,06,30,00,56,17.60
2008,06,30,00,57,17.50
2008,06,30,00,58,17.40
2008,06,30,00,59,17.30
2008,06,30,01,00,17.10
2008,06,30,01,01,17.00
2008,06,30,01,02,16.90
2008,06,30,01,03,16.80
2008,06,30,01,04,16.70
2008,06,30,01,05,16.70
2008,06,30,01,06,16.60
2008,06,30,01,07,16.50
2008,06,30,01,08,16.40
2008,06,30,01,09,16.40
2008,06,30,01,10,16.30
2008,06,30,01,11,16.30
2008,06,30,01,12,16.20
2008,06,30,01,13,16.10
2008,06,30,01,14,16.00
2008,06,30,01,15,15.90
2008,06,30,01,16,15.90
2008,06,30,01,17,15.80
2008,06,30,01,18,15.80
2008,06,30,01,19,15.80
2008,06,30,01,20,15.80
2008,06,30,01,21,15.80
2008,06,30,01,22,15.70
2008,06,30,01,23,15.70
2008,06,30,01,24,15.70
2008,06,30,01,25,15.70
2008,06,30,01,26,15.70
2008,06,30,01,27,15.70
2008,06,30,01,28,15.70
2008,06,30,01,29,15.70
2008,06,30,01,30,15.70
2008,06,30,01,31,15.70
2008,06,30,01,32,15.70
2008,06,30,01,33,15.80
2008,06,30,01,34,15.80
2008,06,30,01,35,15.80
2008,06,30,01,36,15.90
2008,06,30,01,37,15.90
2008,06,30,01,38,16.00
2008,06,30,01,39,16.10
2008,06,30,01,40,16.10
2008,06,30,01,41,16.10
2008,06,30,01,42,16.20
2008,06,30,01,43,16.20
2008,06,30,01,44,16.30
2008,06,30,01,45,16.40
2008,06,30,01,46,16.40
2008,06,30,01,47,16.40
2008,06,30,01,48,16.50
2008,06,30,01,49,16.60
2008,06,30,01,50,16.60
2008,06,30,01,51,16.70
2008,06,30,01,52,16.70
2008,06,30,01,53,16.70
2008,06,30,01,54,16.80
2008,06,30,01,55,16.80
2008,06,30,01,56,16.80
2008,06,30,01,57,16.80
2008,06,30,01,58,16.80
2008,06,30,01,59,16.90
2008,06,30,02,00,16.90
2008,06,30,02,01,16.90
2008,06,30,02,02,16.90
2008,06,30,02,03,16.90
2008,06,30,02,04,16.80
2008,06,30,02,05,16.80
2008,06,30,02,06,16.80
2008,06,30,02,07,16.80
2008,06,30,02,08,16.80
2008,06,30,02,09,16.80
2008,06,30,02,10,16.80
2008,06,30,02,11,16.70
2008,06,30,02,12,16.70
2008,06,30,02,13,16.70
2008,06,30,02,14,16.70
2008,06,30,02,15,16.70
2008,06,30,02,16,16.70
2008,06,30,02,17,16.70
2008,06,30,02,18,16.70
2008,06,30,02,19,16.70
2008,06,30,02,20,16.70
2008,06,30,02,21,16.70
2008,06,30,02,22,16.70
2008,06,30,02,23,16.70
2008,06,30,02,24,16.70
2008,06,30,02,25,16.70
2008,06,30,02,26,16.70
2008,06,30,02,27,16.70
2008,06,30,02,28,16.70
2008,06,30,02,29,16.60
2008,06,30,02,30,16.60
2008,06,30,02,31,16.60
2008,06,30,02,32,16.60
2008,06,30,02,33,16.70
2008,06,30,02,34,16.70
2008,06,30,02,35,16.70
2008,06,30,02,36,16.70
2008,06,30,02,37,16.70
2008,06,30,02,38,16.70
2008,06,30,02,39,16.70
2008,06,30,02,40,16.70
2008,06,30,02,41,16.70
2008,06,30,02,42,16.70
2008,06,30,02,43,16.70
2008,06,30,02,44,16.70
2008,06,30,02,45,16.70
2008,06,30,02,46,16.70
2008,06,30,02,47,16.70
2008,06,30,02,48,16.70
2008,06,30,02,49,16.70
2008,06,30,02,50,16.70
2008,06,30,02,51,16.70
2008,06,30,02,52,16.70
2008,06,30,02,53,16.70
2008,06,30,02,54,16.70
2008,06,30,02,55,16.70
2008,06,30,02,56,16.70
2008,06,30,02,57,16.70
2008,06,30,02,58,16.70
2008,06,30,02,59,16.70
2008,06,30,03,00,16.70
2008,06,30,03,01,16.70
2008,06,30,03,02,16.70
2008,06,30,03,03,16.70
2008,06,30,03,04,16.70
2008,06,30,03,05,16.70
2008,06,30,03,06,16.70
2008,06,30,03,07,16.70
2008,06,30,03,08,16.70
2008,06,30,03,09,16.60
2008,06,30,03,10,16.40
2008,06,30,03,11,16.30
2008,06,30,03,12,16.10
2008,06,30,03,13,16.00
2008,06,30,03,14,15.90
2008,06,30,03,15,15.70
2008,06,30,03,16,15.60
2008,06,30,03,17,15.50
2008,06,30,03,18,15.30
2008,06,30,03,19,15.20
2008,06,30,03,20,15.10
2008,06,30,03,21,15.00
2008,06,30,03,22,14.90
2008,06,30,03,23,14.80
2008,06,30,03,24,14.80
2008,06,30,03,25,14.70
2008,06,30,03,26,14.60
2008,06,30,03,27,14.60
2008,06,30,03,28,14.50
2008,06,30,03,29,14.50
2008,06,30,03,30,14.50
2008,06,30,03,31,14.40
2008,06,30,03,32,14.50
2008,06,30,03,33,14.50
2008,06,30,03,34,14.60
2008,06,30,03,35,14.60
2008,06,30,03,36,14.60
2008,06,30,03,37,14.40
2008,06,30,03,38,14.30
2008,06,30,03,39,14.20
2008,06,30,03,40,14.20
2008,06,30,03,41,14.20
2008,06,30,03,42,14.20
2008,06,30,03,43,14.10
2008,06,30,03,44,14.10
2008,06,30,03,45,14.10
2008,06,30,03,46,14.10
2008,06,30,03,47,14.10
2008,06,30,03,48,14.20
2008,06,30,03,49,14.20
2008,06,30,03,50,14.20
2008,06,30,03,51,14.20
2008,06,30,03,52,14.20
2008,06,30,03,53,14.30
2008,06,30,03,54,14.30
2008,06,30,03,55,14.30
2008,06,30,03,56,14.40
2008,06,30,03,57,14.40
2008,06,30,03,58,14.50
2008,06,30,03,59,14.50
2008,06,30,04,00,14.60
2008,06,30,04,01,14.60
2008,06,30,04,02,14.70
2008,06,30,04,03,14.70
2008,06,30,04,04,14.80
2008,06,30,04,05,14.80
2008,06,30,04,06,14.80
2008,06,30,04,07,14.80
2008,06,30,04,08,14.90
2008,06,30,04,09,15.00
2008,06,30,04,10,15.00
2008,06,30,04,11,15.10
2008,06,30,04,12,15.20
2008,06,30,04,13,15.20
2008,06,30,04,14,15.30
2008,06,30,04,15,15.30
2008,06,30,04,16,15.30
2008,06,30,04,17,15.30
2008,06,30,04,18,15.30
2008,06,30,04,19,15.30
2008,06,30,04,20,15.30
2008,06,30,04,21,15.40
2008,06,30,04,22,15.40
2008,06,30,04,23,15.40
2008,06,30,04,24,15.40
2008,06,30,04,25,15.50
2008,06,30,04,26,15.50
2008,06,30,04,27,15.50
2008,06,30,04,28,15.60
2008,06,30,04,29,15.60
2008,06,30,04,30,15.60
2008,06,30,04,31,15.70
2008,06,30,04,32,15.70
2008,06,30,04,33,15.80
2008,06,30,04,34,15.80
2008,06,30,04,35,15.80
2008,06,30,04,36,15.80
2008,06,30,04,37,15.80
2008,06,30,04,38,15.80
2008,06,30,04,39,15.80
2008,06,30,04,40,15.80
2008,06,30,04,41,15.80
2008,06,30,04,42,15.80
2008,06,30,04,43,15.80
2008,06,30,04,44,15.80
2008,06,30,04,45,15.90
2008,06,30,04,46,15.90
2008,06,30,04,47,15.90
2008,06,30,04,48,15.90
2008,06,30,04,49,15.90
2008,06,30,04,50,15.90
2008,06,30,04,51,15.90
2008,06,30,04,52,15.90
2008,06,30,04,53,15.90
2008,06,30,04,54,15.90
2008,06,30,04,55,15.90
2008,06,30,04,56,15.90
2008,06,30,04,57,15.90
2008,06,30,04,58,15.90
2008,06,30,04,59,15.90
2008,06,30,05,00,15.90
2008,06,30,05,01,15.90
2008,06,30,05,02,15.90
2008,06,30,05,03,15.90
2008,06,30,05,04,15.90
2008,06,30,05,05,15.90
2008,06,30,05,06,15.90
2008,06,30,05,07,15.90
2008,06,30,05,08,15.90
2008,06,30,05,09,15.90
2008,06,30,05,10,15.90
2008,06,30,05,11,15.90
2008,06,30,05,12,15.90
2008,06,30,05,13,15.90
2008,06,30,05,14,16.00
2008,06,30,05,15,16.10
2008,06,30,05,16,16.10
2008,06,30,05,17,16.10
2008,06,30,05,18,16.10
2008,06,30,05,19,16.10
2008,06,30,05,20,16.10
2008,06,30,05,21,16.10
2008,06,30,05,22,16.10
2008,06,30,05,23,16.10
2008,06,30,05,24,16.10
2008,06,30,05,25,16.10
2008,06,30,05,26,16.10
2008,06,30,05,27,16.00
2008,06,30,05,28,15.90
2008,06,30,05,29,15.80
2008,06,30,05,30,15.70
2008,06,30,05,31,15.50
2008,06,30,05,32,15.40
2008,06,30,05,33,15.30
2008,06,30,05,34,15.20
2008,06,30,05,35,15.10
2008,06,30,05,36,15.10
2008,06,30,05,37,15.00
2008,06,30,05,38,15.00
2008,06,30,05,39,14.90
2008,06,30,05,40,14.80
2008,06,30,05,41,14.80
2008,06,30,05,42,14.70
2008,06,30,05,43,14.70
2008,06,30,05,44,14.70
2008,06,30,05,45,14.60
2008,06,30,05,46,14.50
2008,06,30,05,47,14.50
2008,06,30,05,48,14.40
2008,06,30,05,49,14.40
2008,06,30,05,50,14.40
2008,06,30,05,51,14.30
2008,06,30,05,52,14.30
2008,06,30,05,53,14.30
2008,06,30,05,54,14.20
2008,06,30,05,55,14.20
2008,06,30,05,56,14.20
2008,06,30,05,57,14.20
2008,06,30,05,58,14.20
2008,06,30,05,59,14.20
2008,06,30,06,00,14.20
2008,06,30,06,01,14.20
2008,06,30,06,02,14.20
2008,06,30,06,03,14.20
2008,06,30,06,04,14.20
2008,06,30,06,05,14.20
2008,06,30,06,06,14.30
2008,06,30,06,07,14.30
2008,06,30,06,08,14.30
2008,06,30,06,09,14.30
2008,06,30,06,10,14.40
2008,06,30,06,11,14.40
2008,06,30,06,12,14.40
2008,06,30,06,13,14.50
2008,06,30,06,14,14.50
2008,06,30,06,15,14.50
2008,06,30,06,16,14.60
2008,06,30,06,17,14.60
2008,06,30,06,18,14.70
2008,06,30,06,19,14.70
2008,06,30,06,20,14.70
2008,06,30,06,21,14.70
2008,06,30,06,22,14.80
2008,06,30,06,23,14.80
2008,06,30,06,24,14.80
2008,06,30,06,25,14.80
2008,06,30,06,26,14.80
2008,06,30,06,27,14.80
2008,06,30,06,28,14.90
2008,06,30,06,29,14.90
2008,06,30,06,30,14.90
2008,06,30,06,31,14.90
2008,06,30,06,32,14.90
2008,06,30,06,33,14.90
2008,06,30,06,34,14.90
2008,06,30,06,35,14.90
2008,06,30,06,36,14.90
2008,06,30,06,37,14.90
2008,06,30,06,38,14.90
2008,06,30,06,39,14.80
2008,06,30,06,40,14.80
2008,06,30,06,41,14.80
2008,06,30,06,42,14.80
2008,06,30,06,43,14.80
2008,06,30,06,44,14.80
2008,06,30,06,45,14.80
2008,06,30,06,46,14.80
2008,06,30,06,47,14.80
2008,06,30,06,48,14.80
2008,06,30,06,49,14.80
2008,06,30,06,50,14.80
2008,06,30,06,51,14.80
2008,06,30,06,52,14.80
2008,06,30,06,53,14.80
2008,06,30,06,54,14.80
2008,06,30,06,55,14.80
2008,06,30,06,56,14.70
2008,06,30,06,57,14.70
2008,06,30,06,58,14.80
2008,06,30,06,59,14.70
2008,06,30,07,00,14.70
2008,06,30,07,01,14.70
2008,06,30,07,02,14.70
2008,06,30,07,03,14.70
2008,06,30,07,04,14.80
2008,06,30,07,05,14.80
2008,06,30,07,06,14.80
2008,06,30,07,07,14.80
2008,06,30,07,08,14.90
2008,06,30,07,09,14.90
2008,06,30,07,10,14.90
2008,06,30,07,11,15.00
2008,06,30,07,12,15.00
2008,06,30,07,13,15.10
2008,06,30,07,14,15.10
2008,06,30,07,15,15.20
2008,06,30,07,16,15.20
2008,06,30,07,17,15.20
2008,06,30,07,18,15.30
2008,06,30,07,19,15.30
2008,06,30,07,20,15.30
2008,06,30,07,21,15.40
2008,06,30,07,22,15.50
2008,06,30,07,23,15.50
2008,06,30,07,24,15.60
2008,06,30,07,25,15.60
2008,06,30,07,26,15.70
2008,06,30,07,27,15.80
2008,06,30,07,28,15.80
2008,06,30,07,29,15.80
2008,06,30,07,30,15.90
2008,06,30,07,31,15.90
2008,06,30,07,32,16.00
2008,06,30,07,33,16.10
2008,06,30,07,34,16.10
2008,06,30,07,35,16.10
2008,06,30,07,36,16.20
2008,06,30,07,37,16.20
2008,06,30,07,38,16.30
2008,06,30,07,39,16.30
2008,06,30,07,40,16.30
2008,06,30,07,41,16.40
2008,06,30,07,42,16.40
2008,06,30,07,43,16.40
2008,06,30,07,44,16.40
2008,06,30,07,45,16.40
2008,06,30,07,46,16.40
2008,06,30,07,47,16.40
2008,06,30,07,48,16.40
2008,06,30,07,49,16.30
2008,06,30,07,50,16.30
2008,06,30,07,51,16.30
2008,06,30,07,52,16.30
2008,06,30,07,53,16.30
2008,06,30,07,54,16.30
2008,06,30,07,55,16.30
2008,06,30,07,56,16.20
2008,06,30,07,57,16.10
2008,06,30,07,58,16.00
2008,06,30,07,59,15.80
2008,06,30,08,00,15.80
2008,06,30,08,01,15.70
2008,06,30,08,02,15.60
2008,06,30,08,03,15.60
2008,06,30,08,04,15.50
2008,06,30,08,05,15.30
2008,06,30,08,06,15.20
2008,06,30,08,07,15.10
2008,06,30,08,08,15.00
2008,06,30,08,09,14.90
2008,06,30,08,10,14.80
2008,06,30,08,11,14.70
2008,06,30,08,12,14.60
2008,06,30,08,13,14.60
2008,06,30,08,14,14.50
2008,06,30,08,15,14.50
2008,06,30,08,16,14.50
2008,06,30,08,17,14.40
2008,06,30,08,18,14.30
2008,06,30,08,19,14.20
2008,06,30,08,20,14.20
2008,06,30,08,21,14.10
2008,06,30,08,22,14.10
2008,06,30,08,23,14.00
2008,06,30,08,24,14.00
2008,06,30,08,25,14.00
2008,06,30,08,26,14.00
2008,06,30,08,27,14.00
2008,06,30,08,28,13.90
2008,06,30,08,29,14.00
2008,06,30,08,30,14.00
2008,06,30,08,31,13.90
2008,06,30,08,32,13.90
2008,06,30,08,33,13.90
2008,06,30,08,34,13.90
2008,06,30,08,35,13.90
2008,06,30,08,36,13.90
2008,06,30,08,37,13.90
2008,06,30,08,38,13.90
2008,06,30,08,39,13.90
2008,06,30,08,40,13.90
2008,06,30,08,41,13.90
2008,06,30,08,42,13.90
2008,06,30,08,43,13.90
2008,06,30,08,44,13.80
2008,06,30,08,45,13.80
2008,06,30,08,46,13.80
2008,06,30,08,47,13.80
2008,06,30,08,48,13.80
2008,06,30,08,49,13.80
2008,06,30,08,50,13.80
2008,06,30,08,51,13.80
2008,06,30,08,52,13.80
2008,06,30,08,53,13.80
2008,06,30,08,54,13.90
2008,06,30,08,55,13.90
2008,06,30,08,56,14.00
2008,06,30,08,57,14.00
2008,06,30,08,58,14.10
2008,06,30,08,59,14.20
2008,06,30,09,00,14.30
2008,06,30,09,01,14.30
2008,06,30,09,02,14.40
2008,06,30,09,03,14.50
2008,06,30,09,04,14.60
2008,06,30,09,05,14.70
2008,06,30,09,06,14.80
2008,06,30,09,07,15.00
2008,06,30,09,08,15.10
2008,06,30,09,09,15.20
2008,06,30,09,10,15.40
2008,06,30,09,11,15.50
2008,06,30,09,12,15.60
2008,06,30,09,13,15.80
2008,06,30,09,14,16.00
2008,06,30,09,15,16.10
2008,06,30,09,16,16.30
2008,06,30,09,17,16.40
2008,06,30,09,18,16.40
2008,06,30,09,19,16.60
2008,06,30,09,20,16.70
2008,06,30,09,21,16.70
2008,06,30,09,22,16.70
2008,06,30,09,23,16.70
2008,06,30,09,24,16.70
2008,06,30,09,25,16.70
2008,06,30,09,26,16.90
2008,06,30,09,27,17.00
2008,06,30,09,28,17.20
2008,06,30,09,29,17.40
2008,06,30,09,30,17.70
2008,06,30,09,31,17.90
2008,06,30,09,32,18.00
2008,06,30,09,33,18.10
2008,06,30,09,34,18.20
2008,06,30,09,35,18.40
2008,06,30,09,36,18.60
2008,06,30,09,37,18.70
2008,06,30,09,38,18.70
2008,06,30,09,39,18.80
2008,06,30,09,40,18.90
2008,06,30,09,41,18.90
2008,06,30,09,42,19.10
2008,06,30,09,43,19.10
2008,06,30,09,44,19.20
2008,06,30,09,45,19.30
2008,06,30,09,46,19.30
2008,06,30,09,47,19.40
2008,06,30,09,48,19.40
2008,06,30,09,49,19.20
2008,06,30,09,50,19.10
2008,06,30,09,51,19.00
2008,06,30,09,52,18.90
2008,06,30,09,53,18.70
2008,06,30,09,54,18.70
2008,06,30,09,55,18.50
2008,06,30,09,56,18.40
2008,06,30,09,57,18.30
2008,06,30,09,58,18.30
2008,06,30,09,59,18.50
2008,06,30,10,00,18.50
2008,06,30,10,01,18.60
2008,06,30,10,02,18.70
2008,06,30,10,03,18.90
2008,06,30,10,04,19.00
2008,06,30,10,05,19.10
2008,06,30,10,06,19.20
2008,06,30,10,07,19.30
2008,06,30,10,08,19.40
2008,06,30,10,09,19.50
2008,06,30,10,10,19.60
2008,06,30,10,11,19.80
2008,06,30,10,12,19.90
2008,06,30,10,13,20.00
2008,06,30,10,14,20.10
2008,06,30,10,15,20.10
2008,06,30,10,16,20.00
2008,06,30,10,17,19.90
2008,06,30,10,18,19.80
2008,06,30,10,19,19.80
2008,06,30,10,20,19.80
2008,06,30,10,21,19.70
2008,06,30,10,22,19.70
2008,06,30,10,23,19.80
2008,06,30,10,24,19.90
2008,06,30,10,25,19.90
2008,06,30,10,26,20.00
2008,06,30,10,27,20.10
2008,06,30,10,28,20.20
2008,06,30,10,29,20.40
2008,06,30,10,30,20.50
2008,06,30,10,31,20.50
2008,06,30,10,32,20.70
2008,06,30,10,33,20.80
2008,06,30,10,34,20.90
2008,06,30,10,35,20.90
2008,06,30,10,36,20.80
2008,06,30,10,37,20.50
2008,06,30,10,38,20.00
2008,06,30,10,39,19.60
2008,06,30,10,40,19.10
2008,06,30,10,41,18.50
2008,06,30,10,42,18.20
2008,06,30,10,43,17.90
2008,06,30,10,44,17.60
2008,06,30,10,45,17.40
2008,06,30,10,46,17.30
2008,06,30,10,47,17.20
2008,06,30,10,48,17.30
2008,06,30,10,49,17.30
2008,06,30,10,50,17.40
2008,06,30,10,51,17.40
2008,06,30,10,52,17.50
2008,06,30,10,53,17.50
2008,06,30,10,54,17.60
2008,06,30,10,55,17.80
2008,06,30,10,56,17.90
2008,06,30,10,57,18.10
2008,06,30,10,58,18.20
2008,06,30,10,59,18.20
2008,06,30,11,00,18.30
2008,06,30,11,01,18.40
2008,06,30,11,02,18.40
2008,06,30,11,03,18.50
2008,06,30,11,04,18.70
2008,06,30,11,05,18.80
2008,06,30,11,06,19.00
2008,06,30,11,07,19.10
2008,06,30,11,08,19.30
2008,06,30,11,09,19.40
2008,06,30,11,10,19.60
2008,06,30,11,11,19.70
2008,06,30,11,12,19.80
2008,06,30,11,13,19.90
2008,06,30,11,14,20.00
2008,06,30,11,15,20.10
2008,06,30,11,16,20.20
2008,06,30,11,17,20.30
2008,06,30,11,18,20.30
2008,06,30,11,19,20.40
2008,06,30,11,20,20.40
2008,06,30,11,21,20.50
2008,06,30,11,22,20.50
2008,06,30,11,23,20.60
2008,06,30,11,24,20.70
2008,06,30,11,25,20.80
2008,06,30,11,26,20.80
2008,06,30,11,27,20.90
2008,06,30,11,28,21.00
2008,06,30,11,29,21.20
2008,06,30,11,30,21.30
2008,06,30,11,31,21.30
2008,06,30,11,32,21.50
2008,06,30,11,33,21.60
2008,06,30,11,34,21.50
2008,06,30,11,35,21.40
2008,06,30,11,36,21.30
2008,06,30,11,37,21.30
2008,06,30,11,38,21.30
2008,06,30,11,39,21.30
2008,06,30,11,40,21.30
2008,06,30,11,41,21.30
2008,06,30,11,42,21.40
2008,06,30,11,43,21.40
2008,06,30,11,44,21.50
2008,06,30,11,45,21.60
2008,06,30,11,46,21.70
2008,06,30,11,47,21.90
2008,06,30,11,48,22.00
2008,06,30,11,49,22.10
2008,06,30,11,50,22.30
2008,06,30,11,51,22.50
2008,06,30,11,52,22.70
2008,06,30,11,53,22.80
2008,06,30,11,54,23.00
2008,06,30,11,55,23.20
2008,06,30,11,56,23.30
2008,06,30,11,57,23.40
2008,06,30,11,58,23.60
2008,06,30,11,59,23.40
2008,06,30,12,00,23.40
2008,06,30,12,01,23.30
2008,06,30,12,02,23.40
2008,06,30,12,03,23.40
2008,06,30,12,04,23.50
2008,06,30,12,05,23.60
2008,06,30,12,06,23.70
2008,06,30,12,07,23.70
2008,06,30,12,08,23.80
2008,06,30,12,09,23.90
2008,06,30,12,10,24.00
2008,06,30,12,11,24.10
2008,06,30,12,12,24.30
2008,06,30,12,13,24.40
2008,06,30,12,14,24.50
2008,06,30,12,15,24.60
2008,06,30,12,16,24.80
2008,06,30,12,17,24.80
2008,06,30,12,18,24.80
2008,06,30,12,19,24.80
2008,06,30,12,20,24.70
2008,06,30,12,21,24.70
2008,06,30,12,22,24.70
2008,06,30,12,23,24.70
2008,06,30,12,24,24.80
2008,06,30,12,25,24.80
2008,06,30,12,26,24.80
2008,06,30,12,27,24.80
2008,06,30,12,28,24.80
2008,06,30,12,29,24.80
2008,06,30,12,30,24.90
2008,06,30,12,31,24.90
2008,06,30,12,32,24.80
2008,06,30,12,33,24.80
2008,06,30,12,34,24.70
2008,06,30,12,35,24.60
2008,06,30,12,36,24.60
2008,06,30,12,37,24.40
2008,06,30,12,38,24.30
2008,06,30,12,39,24.20
2008,06,30,12,40,24.20
2008,06,30,12,41,24.10
2008,06,30,12,42,24.10
2008,06,30,12,43,24.00
2008,06,30,12,44,23.90
2008,06,30,12,45,23.90
2008,06,30,12,46,23.90
2008,06,30,12,47,24.00
2008,06,30,12,48,24.10
2008,06,30,12,49,24.10
2008,06,30,12,50,24.10
2008,06,30,12,51,24.20
2008,06,30,12,52,24.30
2008,06,30,12,53,24.40
2008,06,30,12,54,24.50
2008,06,30,12,55,24.70
2008,06,30,12,56,24.90
2008,06,30,12,57,25.00
2008,06,30,12,58,25.00
2008,06,30,12,59,25.00
2008,06,30,13,00,24.90
2008,06,30,13,01,24.70
2008,06,30,13,02,24.60
2008,06,30,13,03,24.40
2008,06,30,13,04,24.30
2008,06,30,13,05,24.30
2008,06,30,13,06,24.30
2008,06,30,13,07,24.30
2008,06,30,13,08,24.30
2008,06,30,13,09,24.10
2008,06,30,13,10,23.90
2008,06,30,13,11,23.80
2008,06,30,13,12,23.70
2008,06,30,13,13,23.70
2008,06,30,13,14,23.70
2008,06,30,13,15,23.70
2008,06,30,13,16,23.60
2008,06,30,13,17,23.60
2008,06,30,13,18,23.50
2008,06,30,13,19,23.40
2008,06,30,13,20,23.60
2008,06,30,13,21,23.70
2008,06,30,13,22,23.80
2008,06,30,13,23,23.90
2008,06,30,13,24,23.90
2008,06,30,13,25,23.90
2008,06,30,13,26,23.90
2008,06,30,13,27,23.90
2008,06,30,13,28,23.90
2008,06,30,13,29,23.80
2008,06,30,13,30,23.80
2008,06,30,13,31,23.70
2008,06,30,13,32,23.70
2008,06,30,13,33,23.70
2008,06,30,13,34,23.70
2008,06,30,13,35,23.70
2008,06,30,13,36,23.80
2008,06,30,13,37,23.80
2008,06,30,13,38,23.80
2008,06,30,13,39,23.80
2008,06,30,13,40,23.90
2008,06,30,13,41,23.90
2008,06,30,13,42,23.80
2008,06,30,13,43,23.80
2008,06,30,13,44,23.80
2008,06,30,13,45,23.80
2008,06,30,13,46,23.70
2008,06,30,13,47,23.70
2008,06,30,13,48,23.70
2008,06,30,13,49,23.80
2008,06,30,13,50,23.80
2008,06,30,13,51,23.90
2008,06,30,13,52,23.90
2008,06,30,13,53,24.00
2008,06,30,13,54,24.00
2008,06,30,13,55,23.90
2008,06,30,13,56,23.80
2008,06,30,13,57,23.80
2008,06,30,13,58,23.90
2008,06,30,13,59,23.90
2008,06,30,14,00,24.00
2008,06,30,14,01,24.10
2008,06,30,14,02,24.10
2008,06,30,14,03,24.20
2008,06,30,14,04,24.30
2008,06,30,14,05,24.50
2008,06,30,14,06,24.50
2008,06,30,14,07,24.70
2008,06,30,14,08,24.80
2008,06,30,14,09,24.80
2008,06,30,14,10,24.80
2008,06,30,14,11,24.80
2008,06,30,14,12,24.80
2008,06,30,14,13,24.80
2008,06,30,14,14,24.80
2008,06,30,14,15,24.80
2008,06,30,14,16,24.90
2008,06,30,14,17,24.80
2008,06,30,14,18,24.80
2008,06,30,14,19,24.70
2008,06,30,14,20,24.70
2008,06,30,14,21,24.60
2008,06,30,14,22,24.70
2008,06,30,14,23,24.80
2008,06,30,14,24,24.90
2008,06,30,14,25,25.00
2008,06,30,14,26,25.20
2008,06,30,14,27,25.20
2008,06,30,14,28,25.20
2008,06,30,14,29,25.10
2008,06,30,14,30,25.10
2008,06,30,14,31,25.00
2008,06,30,14,32,24.90
2008,06,30,14,33,24.80
2008,06,30,14,34,24.70
2008,06,30,14,35,24.70
2008,06,30,14,36,24.90
2008,06,30,14,37,25.00
2008,06,30,14,38,25.10
2008,06,30,14,39,25.10
2008,06,30,14,40,25.20
2008,06,30,14,41,25.20
2008,06,30,14,42,25.00
2008,06,30,14,43,25.00
2008,06,30,14,44,24.90
2008,06,30,14,45,24.80
2008,06,30,14,46,24.70
2008,06,30,14,47,24.60
2008,06,30,14,48,24.60
2008,06,30,14,49,24.60
2008,06,30,14,50,24.80
2008,06,30,14,51,24.90
2008,06,30,14,52,25.00
2008,06,30,14,53,25.20
2008,06,30,14,54,25.10
2008,06,30,14,55,25.20
2008,06,30,14,56,25.20
2008,06,30,14,57,25.20
2008,06,30,14,58,25.20
2008,06,30,14,59,25.20
2008,06,30,15,00,25.20
2008,06,30,15,01,25.30
2008,06,30,15,02,25.40
2008,06,30,15,03,25.40
2008,06,30,15,04,25.40
2008,06,30,15,05,25.40
2008,06,30,15,06,25.40
2008,06,30,15,07,25.40
2008,06,30,15,08,25.40
2008,06,30,15,09,25.40
2008,06,30,15,10,25.50
2008,06,30,15,11,25.50
2008,06,30,15,12,25.50
2008,06,30,15,13,25.60
2008,06,30,15,14,25.60
2008,06,30,15,15,25.70
2008,06,30,15,16,25.70
2008,06,30,15,17,25.70
2008,06,30,15,18,25.60
2008,06,30,15,19,25.50
2008,06,30,15,20,25.40
2008,06,30,15,21,25.40
2008,06,30,15,22,25.30
2008,06,30,15,23,25.30
2008,06,30,15,24,25.20
2008,06,30,15,25,24.90
2008,06,30,15,26,24.80
2008,06,30,15,27,24.60
2008,06,30,15,28,24.40
2008,06,30,15,29,24.30
2008,06,30,15,30,24.10
2008,06,30,15,31,24.10
2008,06,30,15,32,23.90
2008,06,30,15,33,23.90
2008,06,30,15,34,24.00
2008,06,30,15,35,24.10
2008,06,30,15,36,24.10
2008,06,30,15,37,24.10
2008,06,30,15,38,24.20
2008,06,30,15,39,24.30
2008,06,30,15,40,24.40
2008,06,30,15,41,24.30
2008,06,30,15,42,24.10
2008,06,30,15,43,24.00
2008,06,30,15,44,23.70
2008,06,30,15,45,23.40
2008,06,30,15,46,23.20
2008,06,30,15,47,23.10
2008,06,30,15,48,23.20
2008,06,30,15,49,23.20
2008,06,30,15,50,23.30
2008,06,30,15,51,23.40
2008,06,30,15,52,23.60
2008,06,30,15,53,23.60
2008,06,30,15,54,23.60
2008,06,30,15,55,23.60
2008,06,30,15,56,23.60
2008,06,30,15,57,23.60
2008,06,30,15,58,23.70
2008,06,30,15,59,23.80
2008,06,30,16,00,24.00
2008,06,30,16,01,24.10
2008,06,30,16,02,24.10
2008,06,30,16,03,24.10
2008,06,30,16,04,24.10
2008,06,30,16,05,24.10
2008,06,30,16,06,24.10
2008,06,30,16,07,24.10
2008,06,30,16,08,24.10
2008,06,30,16,09,24.00
2008,06,30,16,10,23.90
2008,06,30,16,11,23.80
2008,06,30,16,12,23.80
2008,06,30,16,13,23.80
2008,06,30,16,14,23.90
2008,06,30,16,15,24.00
2008,06,30,16,16,24.10
2008,06,30,16,17,24.10
2008,06,30,16,18,24.10
2008,06,30,16,19,24.10
2008,06,30,16,20,24.10
2008,06,30,16,21,24.20
2008,06,30,16,22,24.30
2008,06,30,16,23,24.40
2008,06,30,16,24,24.40
2008,06,30,16,25,24.40
2008,06,30,16,26,24.50
2008,06,30,16,27,24.50
2008,06,30,16,28,24.40
2008,06,30,16,29,24.40
2008,06,30,16,30,24.40
2008,06,30,16,31,24.40
2008,06,30,16,32,24.30
2008,06,30,16,33,24.30
2008,06,30,16,34,24.30
2008,06,30,16,35,24.40
2008,06,30,16,36,24.50
2008,06,30,16,37,24.60
2008,06,30,16,38,24.60
2008,06,30,16,39,24.50
2008,06,30,16,40,24.50
2008,06,30,16,41,24.40
2008,06,30,16,42,24.30
2008,06,30,16,43,24.30
2008,06,30,16,44,24.20
2008,06,30,16,45,24.10
2008,06,30,16,46,24.00
2008,06,30,16,47,23.90
2008,06,30,16,48,23.90
2008,06,30,16,49,23.90
2008,06,30,16,50,23.90
2008,06,30,16,51,23.90
2008,06,30,16,52,23.80
2008,06,30,16,53,23.80
2008,06,30,16,54,23.90
2008,06,30,16,55,24.00
2008,06,30,16,56,24.10
2008,06,30,16,57,24.10
2008,06,30,16,58,24.20
2008,06,30,16,59,24.10
2008,06,30,17,00,24.10
2008,06,30,17,01,24.10
2008,06,30,17,02,24.10
2008,06,30,17,03,24.10
2008,06,30,17,04,24.10
2008,06,30,17,05,24.10
2008,06,30,17,06,24.10
2008,06,30,17,07,24.10
2008,06,30,17,08,24.10
2008,06,30,17,09,24.10
2008,06,30,17,10,24.10
2008,06,30,17,11,24.20
2008,06,30,17,12,24.30
2008,06,30,17,13,24.40
2008,06,30,17,14,24.50
2008,06,30,17,15,24.50
2008,06,30,17,16,24.50
2008,06,30,17,17,24.50
2008,06,30,17,18,24.40
2008,06,30,17,19,24.30